Shelbyville, IN

8:24 PM EDT on September 24, 2017 (GMT -0400)
Shelbyville Municipal

Weather History for KGEZ - March, 2012

Change the Weather History Date:

Monday, March 5, 2012

  Actual Average Record
Temperature  
Mean Temperature 34 °F 37 °F  
Max Temperature 39 °F 47 °F 70 °F (2004)
Min Temperature 28 °F 28 °F 7 °F (2015)
Degree Days  
Heating Degree Days 31 28  
Month to date heating degree days 128 142  
Since 1 July heating degree days 3606 4305  
Cooling Degree Days 0 0  
Month to date cooling degree days 0 0  
Year to date cooling degree days 0 0  
Moisture  
Dew Point 24 °F    
Average Humidity 68    
Maximum Humidity 92    
Minimum Humidity 44    
Precipitation  
Precipitation 0.04 in 0.09 in 1.61 in (2011)
Month to date precipitation 0.18 0.41  
Year to date precipitation 4.82 5.16  
Sea Level Pressure  
Sea Level Pressure 30.18 in    
Wind  
Wind Speed 9 mph (NW)    
Max Wind Speed 18 mph    
Max Gust Speed 23 mph    
Visibility 7 miles    
Events Snow    
T = Trace of Precipitation, MM = Missing Value Source: NWS Daily Summary

Daily Weather History Graph

Daily Weather History Graph

Search for Another Location

Airport or City:

Trip Planner

Search our weather history database for the weather conditions in past years. The results will help you decide how hot, cold, wet, or windy it might be!

Date:

Astronomy

Mar. 05, 2012 Rise Set
Actual Time 7:09 AM EST 6:40 PM EST
Civil Twilight 6:42 AM EST 7:07 PM EST
Nautical Twilight 6:11 AM EST 7:38 PM EST
Astronomical Twilight 5:40 AM EST 8:09 PM EST
Moon 3:58 PM EST (3/5) 5:07 AM EST (3/5)
Length of Visible Light 12h 24m
Length of Day
11h 30m
Waxing Gibbous, 91% of the Moon is Illuminated
Mar 5
Waxing Gibbous
Mar 8
Full
Mar 14
Last Quarter
Mar 22
New
Mar 30
First Quarter

Hourly Weather History & Observations

Time (EST) Temp. Windchill Dew Point Humidity Pressure Visibility Wind Dir Wind Speed Gust Speed Precip Events Conditions
12:39 AM 30.2 °F 23.4 °F 28.4 °F 93% 29.87 in 1.8 mi WNW 6.9 mph - 0.01 in Snow Light Snow
12:53 AM 30.9 °F 25.2 °F 28.0 °F 89% 29.89 in 1.8 mi WNW 5.8 mph - 0.02 in Snow Light Snow
1:53 AM 30.9 °F 22.2 °F 28.0 °F 89% 29.92 in 2.5 mi NNW 10.4 mph - 0.01 in Snow Light Snow
2:03 AM 30.2 °F 21.3 °F 26.6 °F 86% 29.90 in 4.0 mi North 10.4 mph - 0.00 in Snow Light Snow
2:09 AM 30.2 °F 21.9 °F 28.4 °F 93% 29.90 in 3.0 mi NNW 9.2 mph - 0.00 in Snow Light Snow
2:22 AM 30.2 °F 22.6 °F 28.4 °F 93% 29.91 in 2.0 mi NNW 8.1 mph - 0.00 in Snow Light Snow
2:33 AM 30.2 °F 22.6 °F 28.4 °F 93% 29.91 in 1.8 mi NNW 8.1 mph - 0.00 in Snow Light Snow
2:45 AM 30.2 °F 21.9 °F 28.4 °F 93% 29.92 in 2.0 mi NNW 9.2 mph - 0.00 in Snow Light Snow
2:53 AM 30.9 °F 24.3 °F 28.0 °F 89% 29.94 in 2.0 mi NW 6.9 mph - 0.00 in Snow Light Snow
3:09 AM 30.2 °F 21.9 °F 26.6 °F 86% 29.93 in 4.0 mi NW 9.2 mph - 0.00 in Snow Light Snow
3:42 AM 30.2 °F 21.3 °F 26.6 °F 86% 29.96 in 9.0 mi NW 10.4 mph - 0.00 in   Overcast
3:51 AM 30.2 °F 19.3 °F 26.6 °F 86% 29.97 in 10.0 mi NW 15.0 mph 23.0 mph 0.00 in   Overcast
3:53 AM 30.0 °F 18.3 °F 25.0 °F 82% 29.99 in 10.0 mi NW 17.3 mph 23.0 mph 0.00 in   Overcast
4:05 AM 28.4 °F 17.5 °F 24.8 °F 86% 29.98 in 10.0 mi NW 13.8 mph - N/A   Mostly Cloudy
4:53 AM 28.9 °F 19.8 °F 24.1 °F 82% 30.04 in 10.0 mi NW 10.4 mph - N/A   Overcast
5:53 AM 28.9 °F 19.8 °F 23.0 °F 78% 30.09 in 10.0 mi WNW 10.4 mph - N/A   Mostly Cloudy
6:28 AM 28.4 °F 19.7 °F 23.0 °F 80% 30.10 in 10.0 mi WNW 9.2 mph - N/A   Mostly Cloudy
6:53 AM 28.9 °F 19.8 °F 24.1 °F 82% 30.14 in 5.0 mi WNW 10.4 mph - 0.00 in Snow Light Snow
7:03 AM 30.2 °F 21.3 °F 24.8 °F 80% 30.12 in 8.0 mi WNW 10.4 mph - 0.00 in   Overcast
7:18 AM 28.4 °F 19.7 °F 24.8 °F 86% 30.14 in 8.0 mi WNW 9.2 mph - 0.00 in   Overcast
7:53 AM 30.0 °F 23.2 °F 24.1 °F 79% 30.20 in 9.0 mi NW 6.9 mph - 0.00 in   Overcast
8:41 AM 30.2 °F 22.6 °F 24.8 °F 80% 30.22 in 2.5 mi NNW 8.1 mph - 0.00 in Snow Light Snow
8:53 AM 28.9 °F 19.2 °F 24.1 °F 82% 30.26 in 1.8 mi North 11.5 mph - 0.00 in Snow Light Snow
8:59 AM 28.4 °F 19.1 °F 24.8 °F 86% 30.23 in 2.5 mi NNW 10.4 mph - 0.00 in Snow Light Snow
9:07 AM 28.4 °F 19.7 °F 23.0 °F 80% 30.24 in 4.0 mi North 9.2 mph - 0.00 in Snow Light Snow
9:38 AM 28.4 °F 21.2 °F 24.8 °F 86% 30.26 in 2.5 mi NNW 6.9 mph - 0.01 in Snow Light Snow
9:42 AM 28.4 °F 21.2 °F 24.8 °F 86% 30.26 in 6.0 mi NNW 6.9 mph - 0.01 in Snow Light Snow
9:53 AM 30.0 °F 21.7 °F 23.0 °F 75% 30.29 in 10.0 mi North 9.2 mph - 0.01 in   Overcast
10:19 AM 30.2 °F 22.6 °F 23.0 °F 75% 30.28 in 10.0 mi NNW 8.1 mph - N/A   Overcast
10:26 AM 30.2 °F 21.3 °F 23.0 °F 75% 30.29 in 9.0 mi NNW 10.4 mph - N/A   Overcast
10:35 AM 30.2 °F 21.3 °F 21.2 °F 69% 30.29 in 10.0 mi NNW 10.4 mph - N/A   Overcast
10:53 AM 30.9 °F 22.8 °F 23.0 °F 72% 30.33 in 8.0 mi North 9.2 mph - 0.00 in Snow Light Snow
11:53 AM 32.0 °F 25.6 °F 23.0 °F 69% 30.36 in 10.0 mi WNW 6.9 mph - 0.00 in   Overcast
12:53 PM 35.1 °F 27.4 °F 21.0 °F 57% 30.38 in 10.0 mi WNW 10.4 mph - N/A   Overcast
1:53 PM 35.1 °F 29.3 °F 19.9 °F 54% 30.38 in 10.0 mi NW 6.9 mph 17.3 mph N/A   Mostly Cloudy
2:53 PM 37.9 °F 31.5 °F 19.9 °F 48% 30.38 in 10.0 mi West 9.2 mph 16.1 mph N/A   Scattered Clouds
3:53 PM 37.9 °F 31.5 °F 19.0 °F 47% 30.39 in 10.0 mi WNW 9.2 mph - N/A   Scattered Clouds
4:53 PM 37.9 °F 32.1 °F 18.0 °F 45% 30.40 in 10.0 mi West 8.1 mph - N/A   Partly Cloudy
5:53 PM 37.9 °F 35.5 °F 18.0 °F 45% 30.40 in 10.0 mi West 3.5 mph - N/A   Clear
6:53 PM 34.0 °F 29.8 °F 21.0 °F 59% 30.40 in 10.0 mi South 4.6 mph - N/A   Clear
7:53 PM 30.9 °F 26.2 °F 19.9 °F 64% 30.40 in 10.0 mi SE 4.6 mph - N/A   Clear
8:53 PM 33.1 °F 24.9 °F 23.0 °F 66% 30.41 in 10.0 mi South 10.4 mph - N/A   Clear
9:53 PM 32.0 °F 24.2 °F 23.0 °F 69% 30.42 in 10.0 mi SSW 9.2 mph - N/A   Clear
10:53 PM 30.0 °F 23.2 °F 21.9 °F 72% 30.43 in 10.0 mi South 6.9 mph - N/A   Clear
11:53 PM 30.0 °F 24.1 °F 21.9 °F 72% 30.42 in 10.0 mi SSE 5.8 mph - N/A   Clear